Regional Weather Roundup
Issued by NWS

Home | Current Version | Previous Version | Graphics & Text | Print | Product List | Glossary On
Versions: 1 2 3 4 5 6 7 8 9 10 11 12 13 14 15 16 17 18 19 20 21 22 23 24 25 26 27 28 29 30 31 32 33 34 35 36 37 38 39 40 41 42 43 44 45 46 47 48 49 50
000
ASUS43 KTOP 200108
RWRKS

WEATHER ROUNDUP FOR KANSAS
NATIONAL WEATHER SERVICE GOODLAND KS
800 PM CDT TUE AUG 19 2014

NOTE:  "FAIR" INDICATES FEW OR NO CLOUDS BELOW 12,000 FEET WITH NO
SIGNIFICANT WEATHER AND/OR OBSTRUCTIONS TO VISIBILITY.

KSZ001>006-013>018-027>032-041>047-200200-
NORTHWEST KANSAS

CITY           SKY/WX    TMP DP  RH WIND       PRES   REMARKS
GOODLAND       PTCLDY    84  56  38 SE17G25   29.77S
HAYS           CLEAR     90  63  40 S16G24    29.77R
HILL CITY      CLEAR     88  61  40 S10       29.74S
RUSSELL        CLEAR     90  62  39 S16       29.75S
$$

KSZ061>065-074>080-084>089-200200-
SOUTHWEST KANSAS

CITY           SKY/WX    TMP DP  RH WIND       PRES   REMARKS
DODGE CITY     CLEAR     87  59  38 S13G22    29.81S
ELKHART          N/A     88  58  36 SE14        N/A
GARDEN CITY    CLEAR     85  59  41 S10       29.80R
GREAT BEND     CLEAR     90  61  37 S14       29.77S
LIBERAL        CLEAR     90  57  33 S13G20    29.84R
PRATT          CLEAR     88  55  33 S14       29.81S
$$

KSZ066>073-081>083-090>101-200200-
SOUTHEAST KANSAS

CITY           SKY/WX    TMP DP  RH WIND       PRES   REMARKS
CHANUTE        CLEAR     87  68  52 S7        29.80S
COFFEYVILLE    CLEAR     88  72  58 S7        29.79S
HUTCHINSON     CLEAR     90  64  42 S9        29.78S
MEDICINE LODGE   N/A     91  62  37 S10       29.77S
NEWTON         CLEAR     88  64  45 S8        29.83S
PARSONS        CLEAR     87  70  56 CALM      29.81S
WICHITA INTL   PTCLDY    88  65  46 S12       29.78S
WICHITA JABRA  PTCLDY    86  67  52 S12       29.79S
WICHITA MCCONL PTCLDY    87  68  52 SE12      29.80S
WINFIELD       PTCLDY    86  69  56 S7        29.80F
$$

KSZ007>012-019>026-033>040-048>060-102>105-200200-
NORTHEAST KANSAS

CITY           SKY/WX    TMP DP  RH WIND       PRES   REMARKS
CONCORDIA      CLEAR     83  70  64 E6        29.76F
EMPORIA        PTCLDY    85  68  56 S8        29.78S
LAWRENCE       CLEAR     86  73  65 E7        29.77S
MANHATTAN      PTCLDY    89  67  47 S5        29.75S
MARYSVILLE     CLEAR     84  70  61 SE3       29.77S
OLATHE IND     CLEAR     87  69  54 SE7       29.79S
OLATHE EXE     CLEAR     86  70  58 SE5       29.79S
SALINA         CLEAR     88  66  48 S9        29.76R
TOPEKA BILLARD CLEAR     88  72  58 SE3       29.76F
TOPEKA FORBES  CLEAR     88  69  53 E3        29.77S
$$



USA.gov is the U.S. government's official web portal to all federal, state and local government web resources and services.